CW9546 Weather Reports


Display with metric or nautical units.
time (UTC)temp
F
wind
direction
speed
MPH
gust
MPH
rain 1hr
in
rain 24hr
in
rain mn
in
humidity
%
barometer
mb
20260504021042 76 300 1.0 0.0 0.00 0.00 0.00 51 1009.2
20260504020052 77 182 0.0 0.0 0.00 0.00 0.00 49 1009.0
20260504015039 78 171 1.0 0.0 0.00 0.00 0.00 46 1009.1
20260504014026 79 204 1.0 0.0 0.00 0.00 0.00 45 1009.1
20260504013113 80 285 1.0 0.0 0.00 0.00 0.00 42 1009.2
20260504012042 80 6 2.0 0.0 0.00 0.00 0.00 41 1009.3
20260504011031 80 284 2.0 0.0 0.00 0.00 0.00 38 1009.3
20260504010045 81 294 3.0 0.0 0.00 0.00 0.00 35 1009.5
20260504005118 81 1 2.0 0.0 0.00 0.00 0.00 37 1009.6
20260504004030 80 74 1.0 0.0 0.00 0.00 0.00 45 1009.6
20260504003044 80 98 1.0 0.0 0.00 0.00 0.00 46 1009.6
20260504002057 81 120 1.0 0.0 0.00 0.00 0.00 45 1009.6
20260504001044 82 265 2.0 0.0 0.00 0.00 0.00 38 1009.7
20260504000048 83 327 2.0 0.0 0.00 0.00 0.00 39 1009.8
20260503235042 83 263 2.0 0.0 0.00 0.00 0.00 37 1010.1
20260503234050 83 275 2.0 0.0 0.00 0.00 0.00 42 1010.1
20260503233038 83 181 3.0 0.0 0.00 0.00 0.00 40 1010.2
20260503232050 83 100 2.0 0.0 0.00 0.00 0.00 39 1010.3
20260503231026 82 197 2.0 0.0 0.00 0.00 0.00 43 1010.3
20260503230035 83 293 2.0 0.0 0.00 0.00 0.00 40 1010.6
20260503225050 84 297 2.0 0.0 0.00 0.00 0.00 39 1010.7
20260503224043 84 271 2.0 0.0 0.00 0.00 0.00 41 1010.7
20260503223036 84 325 2.0 0.0 0.00 0.00 0.00 42 1010.8
20260503222047 85 276 2.0 0.0 0.00 0.00 0.00 41 1011.0
20260503221037 85 15 2.0 0.0 0.00 0.00 0.00 41 1011.0
20260503220055 83 262 2.0 0.0 0.00 0.00 0.00 44 1011.1
20260503215217 84 113 1.0 0.0 0.00 0.00 0.00 45 1011.2
20260503214050 84 283 2.0 0.0 0.00 0.00 0.00 42 1011.2
20260503213041 83 193 1.0 0.0 0.00 0.00 0.00 44 1011.2
20260503212049 83 290 2.0 0.0 0.00 0.00 0.00 45 1011.3
20260503211041 83 288 3.0 0.0 0.00 0.00 0.00 44 1011.3
20260503210049 81 277 1.0 0.0 0.00 0.00 0.00 50 1011.7
20260503205041 80 75 2.0 0.0 0.00 0.00 0.00 52 1011.7
20260503204035 80 110 2.0 0.0 0.00 0.00 0.00 51 1011.7
20260503203041 79 102 2.0 0.0 0.00 0.00 0.00 53 1011.9
20260503202046 79 82 2.0 0.0 0.00 0.00 0.00 51 1012.2
20260503201034 78 58 2.0 0.0 0.00 0.00 0.00 53 1012.2
20260503200045 78 245 2.0 0.0 0.00 0.00 0.00 55 1012.3
20260503195122 79 110 2.0 0.0 0.00 0.00 0.00 51 1012.5
20260503194055 79 49 1.0 0.0 0.00 0.00 0.00 50 1012.5
20260503193044 78 61 2.0 0.0 0.00 0.00 0.00 51 1012.8
20260503192051 77 101 2.0 0.0 0.00 0.00 0.00 52 1012.8
20260503191042 76 102 2.0 0.0 0.00 0.00 0.00 55 1012.8
20260503190049 75 98 2.0 0.0 0.00 0.00 0.00 56 1012.9
20260503185050 74 102 2.0 0.0 0.00 0.00 0.00 59 1013.2
20260503184040 75 82 2.0 0.0 0.00 0.00 0.00 59 1013.2
20260503183120 74 287 2.0 0.0 0.00 0.00 0.00 61 1013.3
20260503182049 73 316 1.0 0.0 0.00 0.00 0.00 63 1013.3
20260503181041 72 93 2.0 0.0 0.00 0.00 0.00 62 1013.3
20260503180050 72 58 1.0 0.0 0.00 0.00 0.00 63 1013.4
20260503175044 71 103 1.0 0.0 0.00 0.00 0.00 62 1013.6
20260503174054 71 173 1.0 0.0 0.00 0.00 0.00 67 1013.6
20260503173100 69 91 1.0 0.0 0.00 0.00 0.00 67 1013.8
20260503172057 68 72 2.0 0.0 0.00 0.00 0.00 67 1013.8
20260503171034 67 67 1.0 0.0 0.00 0.00 0.00 65 1013.8
20260503131054 50 320 0.0 0.0 0.00 0.00 0.00 79 1013.8
20260503081050 54 320 0.0 0.0 0.00 0.00 0.00 77 1014.4
20260503072032 56 320 0.0 0.0 0.00 0.00 0.01 74 1014.3
20260503071048 56 320 0.0 0.0 0.00 0.00 0.01 73 1014.3
20260503070122 56 320 0.0 0.0 0.00 0.00 0.01 73 1014.2
20260503055057 58 320 0.0 0.0 0.00 0.00 0.01 69 1014.1
20260503054112 58 320 0.0 0.0 0.00 0.00 0.01 69 1014.1
20260503053036 59 320 0.0 0.0 0.00 0.00 0.01 68 1014.2
20260503052052 59 320 0.0 0.0 0.00 0.00 0.01 67 1014.2
20260503051041 60 320 0.0 0.0 0.00 0.00 0.01 67 1014.2
20260503050044 60 320 0.0 0.0 0.00 0.00 0.01 66 1013.9
20260503045043 61 320 0.0 0.0 0.00 0.00 0.01 64 1013.9
20260503044037 62 320 0.0 0.0 0.00 0.00 0.01 62 1013.9
20260503043044 62 320 0.0 0.0 0.00 0.00 0.01 60 1013.8
20260503041041 64 321 0.0 0.0 0.00 0.00 0.01 58 1013.9
20260503035052 65 309 0.0 0.0 0.00 0.00 0.01 56 1013.3
20260503034042 65 309 1.0 0.0 0.00 0.00 0.01 56 1013.3
20260503033040 66 342 1.0 0.0 0.00 0.00 0.01 57 1013.0
20260503032057 66 340 1.0 0.0 0.00 0.00 0.01 57 1012.9
20260503031101 67 347 1.0 0.0 0.00 0.00 0.01 57 1012.9
20260503030132 67 347 1.0 0.0 0.00 0.00 0.01 57 1012.8
20260503025046 68 285 1.0 0.0 0.00 0.00 0.01 59 1012.8
20260503024157 69 307 1.0 0.0 0.00 0.00 0.01 58 1012.8
20260503023038 69 303 1.0 0.0 0.00 0.00 0.01 58 1012.8
20260503022040 69 313 2.0 0.0 0.00 0.00 0.01 57 1012.8